Regional Weather Roundup
Issued by NWS

Home | Current Version | Previous Version | Graphics & Text | Print | Product List | Glossary Off
Versions: 1 2 3 4 5 6 7 8 9 10 11 12 13 14 15 16 17 18 19 20 21 22 23 24 25 26 27 28 29 30 31 32 33 34 35 36 37 38 39 40 41 42 43 44 45 46 47 48 49 50

000
ASUS43 KTOP 251108
RWRKS

WEATHER ROUNDUP FOR KANSAS
NATIONAL WEATHER SERVICE GOODLAND KS
500 AM CST SAT FEB 25 2017

NOTE:  "FAIR" INDICATES FEW OR NO CLOUDS BELOW 12,000 FEET WITH NO
SIGNIFICANT WEATHER AND/OR OBSTRUCTIONS TO VISIBILITY.

KSZ001>006-013>018-027>032-041>047-251200-
NORTHWEST KANSAS

CITY           SKY/WX    TMP DP  RH WIND       PRES   REMARKS
GOODLAND       CLOUDY    18  15  88 SW8       30.05F
HAYS           CLEAR     12   8  84 NW7       30.17S
HILL CITY      CLEAR     10   7  87 W6        30.14F
RUSSELL        CLEAR     11   8  88 NW7       30.15F
$$

KSZ061>065-074>080-084>089-251200-
SOUTHWEST KANSAS

CITY           SKY/WX    TMP DP  RH WIND       PRES   REMARKS
DODGE CITY     CLEAR     12   8  84 SW3       30.16S
ELKHART          N/A     17   4  56 SW3         N/A
GARDEN CITY    PTCLDY    10   5  80 W6        30.14S
GREAT BEND     CLEAR     12   8  84 W8        30.18S
LIBERAL        CLOUDY    16   5  62 W3        30.15S
PRATT          CLEAR     11   7  81 NW7       30.18S
$$

KSZ066>073-081>083-090>101-251200-
SOUTHEAST KANSAS

CITY           SKY/WX    TMP DP  RH WIND       PRES   REMARKS
CHANUTE        CLEAR     21  16  81 W9        30.16R
COFFEYVILLE    CLEAR     22  17  81 W6        30.19R
HUTCHINSON     CLEAR     17  12  80 NW10      30.18S WCI   5
MEDICINE LODGE   N/A     13  10  88 W3        30.20S
NEWTON         CLEAR     17  14  88 W7        30.18R
PARSONS        CLEAR     20  15  81 W3        30.18R
WICHITA INTL   CLEAR     20  15  81 NW12      30.18F WCI   8
WICHITA JABRA  CLEAR     20  15  81 NW10      30.18R WCI   9
WICHITA MCCONL CLEAR     21  14  74 NW10      30.17F WCI  10
WINFIELD       CLEAR     21  16  81 NW7       30.20R
$$

KSZ007>012-019>026-033>040-048>060-102>105-251200-
NORTHEAST KANSAS

CITY           SKY/WX    TMP DP  RH WIND       PRES   REMARKS
CONCORDIA      CLEAR     15  11  83 W10       30.15S WCI   2
EMPORIA        CLEAR     19  16  88 NW8       30.14R
LAWRENCE       CLEAR     19  16  88 W8        30.13R
MANHATTAN      CLEAR     22  15  75 W6        30.16R
MARYSVILLE     CLEAR     19  14  79 NW7       30.14R
OLATHE IND     CLEAR     21  17  84 NW9       30.11R
OLATHE EXE     CLEAR     21  18  88 NW10      30.09R WCI  10
SALINA         CLEAR     21  14  74 NW13      30.18R WCI   9
TOPEKA BILLARD CLEAR     22  17  81 W6        30.13S
TOPEKA FORBES  CLEAR     20  15  81 NW8       30.12S
$$




USA.gov is the U.S. government's official web portal to all federal, state and local government web resources and services.